Weather History for KFGN - May, 2013

Change the Weather History Date:

Friday, May 3, 2013

  Actual Average Record
Temperature  
Mean Temperature 35 °F -  
Max Temperature 44 °F 50 °F 69 °F (2007)
Min Temperature 26 °F 34 °F 24 °F (2002)
Degree Days  
Heating Degree Days 30    
Moisture  
Dew Point 21 °F    
Average Humidity 62    
Maximum Humidity 93    
Minimum Humidity 31    
Precipitation  
Precipitation 0.00 in - - ()
Sea Level Pressure  
Sea Level Pressure 30.41 in    
Wind  
Wind Speed 5 mph (NNE)    
Max Wind Speed 15 mph    
Max Gust Speed -    
Visibility 10 miles    
Events      
Averages and records for this station are not official NWS values.
T = Trace of Precipitation, MM = Missing Value Source: NWS Daily Summary

Daily Weather History Graph

Daily Weather History Graph

Search for Another Location

Airport or City:

Trip Planner

Search our weather history database for the weather conditions in past years. The results will help you decide how hot, cold, wet, or windy it might be!

Date:

Astronomy

May. 03, 2013 Rise Set
Actual Time 5:53 AM CDT 8:39 PM CDT
Civil Twilight 5:17 AM CDT 9:16 PM CDT
Nautical Twilight 4:31 AM CDT 10:03 PM CDT
Astronomical Twilight 3:35 AM CDT 10:59 PM CDT
Moon 2:53 AM CDT (5/3) 2:03 PM CDT (5/3)
Length of Visible Light 15h 58m
Length of Day
14h 45m
Last Quarter, 37% of the Moon is Illuminated
May 3
Last Quarter
May 9
New
May 17
First Quarter
May 24
Full
May 31
Last Quarter

Hourly Weather History & Observations

Time (CDT) Temp. Windchill Dew Point Humidity Pressure Visibility Wind Dir Wind Speed Gust Speed Precip Events Conditions
12:13 AM 30.2 °F - 21.2 °F 69% 30.54 in 10.0 mi Calm Calm - N/A   Clear
12:53 AM 30.2 °F 25.4 °F 24.8 °F 80% 30.53 in 10.0 mi WNW 4.6 mph - N/A   Clear
1:13 AM 30.2 °F 26.7 °F 23.0 °F 75% 30.53 in 10.0 mi NW 3.5 mph - N/A   Clear
1:34 AM 30.2 °F - 24.8 °F 80% 30.52 in 10.0 mi Calm Calm - N/A   Clear
1:53 AM 28.4 °F - 24.8 °F 86% 30.52 in 10.0 mi Calm Calm - N/A   Clear
2:14 AM 28.4 °F 24.6 °F 24.8 °F 86% 30.52 in 10.0 mi North 3.5 mph - N/A   Clear
2:33 AM 26.6 °F 22.6 °F 24.8 °F 93% 30.51 in 10.0 mi NW 3.5 mph - N/A   Clear
2:54 AM 28.4 °F 23.3 °F 23.0 °F 80% 30.51 in 10.0 mi North 4.6 mph - N/A   Clear
3:13 AM 28.4 °F 24.6 °F 23.0 °F 80% 30.51 in 10.0 mi North 3.5 mph - N/A   Clear
3:34 AM 26.6 °F 20.0 °F 21.2 °F 80% 30.50 in 10.0 mi NNE 5.8 mph - N/A   Clear
3:53 AM 26.6 °F 20.0 °F 21.2 °F 80% 30.50 in 10.0 mi NNE 5.8 mph - N/A   Clear
4:13 AM 26.6 °F 21.2 °F 23.0 °F 86% 30.50 in 10.0 mi NNE 4.6 mph - N/A   Clear
4:33 AM 26.6 °F 21.2 °F 21.2 °F 80% 30.50 in 10.0 mi NNE 4.6 mph - N/A   Clear
4:54 AM 26.6 °F 22.6 °F 23.0 °F 86% 30.50 in 10.0 mi North 3.5 mph - N/A   Clear
5:13 AM 26.6 °F 22.6 °F 23.0 °F 86% 30.50 in 10.0 mi NNW 3.5 mph - N/A   Clear
5:33 AM 26.6 °F 22.6 °F 23.0 °F 86% 30.49 in 10.0 mi NW 3.5 mph - N/A   Clear
5:53 AM 26.6 °F 21.2 °F 23.0 °F 86% 30.49 in 10.0 mi NNW 4.6 mph - N/A   Clear
6:13 AM 26.6 °F 21.2 °F 23.0 °F 86% 30.49 in 10.0 mi NNW 4.6 mph - N/A   Clear
6:33 AM 26.6 °F 21.2 °F 23.0 °F 86% 30.49 in 10.0 mi NNW 4.6 mph - N/A   Clear
6:53 AM 26.6 °F 22.6 °F 23.0 °F 86% 30.50 in 10.0 mi NNW 3.5 mph - N/A   Clear
7:14 AM 26.6 °F 21.2 °F 23.0 °F 86% 30.50 in 10.0 mi North 4.6 mph - N/A   Clear
7:33 AM 26.6 °F 22.6 °F 23.0 °F 86% 30.50 in 10.0 mi North 3.5 mph - N/A   Clear
7:54 AM 26.6 °F 20.0 °F 23.0 °F 86% 30.49 in 10.0 mi North 5.8 mph - N/A   Clear
8:13 AM 28.4 °F 21.2 °F 24.8 °F 86% 30.49 in 10.0 mi North 6.9 mph - N/A   Clear
8:33 AM 28.4 °F 21.2 °F 24.8 °F 86% 30.48 in 10.0 mi North 6.9 mph - N/A   Clear
8:53 AM 30.2 °F 22.6 °F 24.8 °F 80% 30.47 in 10.0 mi North 8.1 mph - N/A   Clear
9:13 AM 30.2 °F 23.4 °F 24.8 °F 80% 30.47 in 10.0 mi North 6.9 mph - N/A   Clear
9:53 AM 32.0 °F 25.6 °F 24.8 °F 75% 30.47 in 10.0 mi North 6.9 mph - N/A   Clear
10:13 AM 33.8 °F 26.4 °F 24.8 °F 70% 30.45 in 10.0 mi North 9.2 mph - N/A   Clear
10:34 AM 33.8 °F 27.0 °F 24.8 °F 70% 30.45 in 10.0 mi North 8.1 mph - N/A   Clear
10:53 AM 33.8 °F 26.4 °F 24.8 °F 70% 30.44 in 10.0 mi North 9.2 mph - N/A   Clear
11:14 AM 35.6 °F 29.2 °F 24.8 °F 65% 30.43 in 10.0 mi North 8.1 mph - N/A   Clear
11:33 AM 35.6 °F 27.1 °F 21.2 °F 56% 30.43 in 10.0 mi North 12.7 mph - N/A   Clear
11:54 AM 35.6 °F 27.1 °F 19.4 °F 52% 30.43 in 10.0 mi North 12.7 mph - N/A   Clear
12:33 PM 37.4 °F 30.8 °F 19.4 °F 48% 30.41 in 10.0 mi NNE 9.2 mph - N/A   Clear
12:53 PM 37.4 °F 31.4 °F 21.2 °F 52% 30.41 in 10.0 mi North 8.1 mph - N/A   Clear
1:13 PM 37.4 °F 30.3 °F 19.4 °F 48% 30.40 in 10.0 mi North 10.4 mph - N/A   Clear
1:34 PM 39.2 °F 33.0 °F 21.2 °F 49% 30.39 in 10.0 mi North 9.2 mph - N/A   Clear
1:53 PM 39.2 °F 33.0 °F 21.2 °F 49% 30.39 in 10.0 mi North 9.2 mph - N/A   Clear
2:13 PM 39.2 °F 32.5 °F 19.4 °F 45% 30.38 in 10.0 mi NNE 10.4 mph - N/A   Clear
2:34 PM 39.2 °F 33.0 °F 19.4 °F 45% 30.37 in 10.0 mi North 9.2 mph - N/A   Clear
2:53 PM 41.0 °F 34.3 °F 17.6 °F 39% 30.36 in 10.0 mi NNE 11.5 mph - N/A   Clear
3:13 PM 42.8 °F 36.2 °F 15.8 °F 34% 30.35 in 10.0 mi NNE 12.7 mph - N/A   Clear
3:34 PM 42.8 °F 37.0 °F 15.8 °F 34% 30.35 in 10.0 mi NNE 10.4 mph - N/A   Clear
3:53 PM 42.8 °F 35.4 °F 15.8 °F 34% 30.34 in 10.0 mi NNE 15.0 mph - N/A   Clear
4:13 PM 42.8 °F 35.8 °F 15.8 °F 34% 30.34 in 10.0 mi NNE 13.8 mph - N/A   Clear
4:34 PM 41.0 °F 34.3 °F 17.6 °F 39% 30.33 in 10.0 mi NNE 11.5 mph - N/A   Clear
4:53 PM 42.8 °F 38.6 °F 19.4 °F 39% 30.33 in 10.0 mi NNE 6.9 mph - N/A   Clear
5:13 PM 42.8 °F 37.0 °F 19.4 °F 39% 30.32 in 10.0 mi NNE 10.4 mph - N/A   Clear
5:34 PM 42.8 °F 36.6 °F 17.6 °F 36% 30.32 in 10.0 mi NNE 11.5 mph - N/A   Clear
5:53 PM 44.6 °F 39.7 °F 15.8 °F 31% 30.31 in 10.0 mi NE 9.2 mph - N/A   Clear
6:13 PM 44.6 °F 39.7 °F 15.8 °F 31% 30.31 in 10.0 mi NE 9.2 mph - N/A   Clear
6:34 PM 44.6 °F 40.2 °F 15.8 °F 31% 30.31 in 10.0 mi ENE 8.1 mph - N/A   Clear
6:53 PM 44.6 °F 39.7 °F 15.8 °F 31% 30.31 in 10.0 mi ENE 9.2 mph - N/A   Clear
7:13 PM 42.8 °F 38.0 °F 17.6 °F 36% 30.31 in 10.0 mi NE 8.1 mph - N/A   Clear
7:34 PM 42.8 °F 38.0 °F 17.6 °F 36% 30.32 in 10.0 mi ENE 8.1 mph - N/A   Clear
7:53 PM 42.8 °F 40.1 °F 17.6 °F 36% 30.31 in 10.0 mi ENE 4.6 mph - N/A   Clear
8:13 PM 44.6 °F 43.1 °F 17.6 °F 34% 30.31 in 10.0 mi East 3.5 mph - N/A   Clear
8:34 PM 42.8 °F 40.1 °F 21.2 °F 42% 30.31 in 10.0 mi SE 4.6 mph - N/A   Clear
8:53 PM 39.2 °F - 21.2 °F 49% 30.31 in 10.0 mi Calm Calm - N/A   Clear
9:13 PM 39.2 °F 37.0 °F 21.2 °F 49% 30.32 in 10.0 mi ESE 3.5 mph - N/A   Clear
9:34 PM 39.2 °F 35.9 °F 21.2 °F 49% 30.32 in 10.0 mi East 4.6 mph - N/A   Clear
9:53 PM 39.2 °F 37.0 °F 19.4 °F 45% 30.32 in 10.0 mi East 3.5 mph - N/A   Clear
10:14 PM 39.2 °F - 19.4 °F 45% 30.32 in 10.0 mi Calm Calm - N/A   Clear
10:53 PM 35.6 °F - 26.6 °F 70% 30.32 in 10.0 mi Calm Calm - N/A   Clear
11:14 PM 35.6 °F - 26.6 °F 70% 30.31 in 10.0 mi Calm Calm - N/A   Clear
11:34 PM 33.8 °F - 26.6 °F 75% 30.31 in 10.0 mi Calm Calm - N/A   Clear
11:53 PM 33.8 °F - 26.6 °F 75% 30.31 in 10.0 mi Calm Calm - N/A   Clear